TimeMST,TemperatureF,Dew PointF,Humidity,Sea Level PressureIn,VisibilityMPH,Wind Direction,Wind SpeedMPH,Gust SpeedMPH,PrecipitationIn,Events,Conditions,WindDirDegrees,DateUTC
12:56 AM,36.0,19.0,50,30.05,-9999.0,North,12.7,-,N/A,,Unknown,350,2013-01-25 07:56:00
1:56 AM,36.0,18.0,48,30.09,-9999.0,North,8.1,-,N/A,,Unknown,350,2013-01-25 08:56:00
2:56 AM,37.0,16.0,42,30.11,-9999.0,North,12.7,-,N/A,,Unknown,360,2013-01-25 09:56:00
3:56 AM,36.0,19.0,50,30.13,-9999.0,North,12.7,-,N/A,,Unknown,350,2013-01-25 10:56:00
4:56 AM,35.1,19.9,54,30.13,-9999.0,NNW,3.5,-,N/A,,Unknown,330,2013-01-25 11:56:00
5:56 AM,34.0,21.0,59,30.17,-9999.0,NNW,5.8,-,N/A,,Unknown,330,2013-01-25 12:56:00
6:56 AM,35.1,21.0,57,30.19,-9999.0,NNW,3.5,-,N/A,,Unknown,340,2013-01-25 13:56:00
7:56 AM,36.0,21.0,55,30.22,-9999.0,North,5.8,-,N/A,,Unknown,350,2013-01-25 14:56:00
8:56 AM,39.9,21.0,47,30.22,-9999.0,North,5.8,-,N/A,,Unknown,350,2013-01-25 15:56:00
9:56 AM,48.0,18.0,30,30.20,-9999.0,NNE,4.6,-,N/A,,Unknown,30,2013-01-25 16:56:00
10:56 AM,52.0,21.0,30,30.16,-9999.0,Variable,3.5,-,N/A,,Unknown,0,2013-01-25 17:56:00
11:56 AM,55.9,24.1,29,30.14,-9999.0,SE,9.2,-,N/A,,Unknown,130,2013-01-25 18:56:00
12:56 PM,57.0,24.1,28,30.11,-9999.0,South,13.8,-,N/A,,Unknown,180,2013-01-25 19:56:00
1:56 PM,55.9,24.1,29,30.08,-9999.0,South,15.0,-,N/A,,Unknown,180,2013-01-25 20:56:00
2:56 PM,55.0,24.1,30,30.08,-9999.0,SSW,17.3,-,N/A,,Unknown,200,2013-01-25 21:56:00
3:56 PM,54.0,24.1,31,30.07,-9999.0,South,17.3,-,N/A,,Unknown,190,2013-01-25 22:56:00
4:56 PM,50.0,24.1,36,30.07,-9999.0,South,13.8,-,N/A,,Unknown,180,2013-01-25 23:56:00
5:56 PM,44.1,23.0,43,30.11,-9999.0,SSE,8.1,-,N/A,,Unknown,160,2013-01-26 00:56:00
6:56 PM,43.0,21.0,42,30.10,-9999.0,South,13.8,-,N/A,,Unknown,190,2013-01-26 01:56:00
7:56 PM,39.9,21.9,49,30.11,-9999.0,SSW,12.7,-,N/A,,Unknown,200,2013-01-26 02:56:00
8:56 PM,37.9,21.9,53,30.09,-9999.0,South,12.7,-,N/A,,Unknown,190,2013-01-26 03:56:00
9:56 PM,37.0,23.0,57,30.07,-9999.0,SSW,12.7,-,N/A,,Unknown,210,2013-01-26 04:56:00
10:56 PM,36.0,24.1,62,30.06,-9999.0,SW,12.7,-,N/A,,Unknown,220,2013-01-26 05:56:00
11:56 PM,37.0,24.1,59,30.03,-9999.0,SW,12.7,-,N/A,,Unknown,220,2013-01-26 06:56:00